Probability
0 0 0 0 0 0 0 0 0 0 0 0 0 0 0 0 0 0 0 0 0 0 0 0 0 0 0 0 0 0 0 0 0 0 0 0 0 0 0 0 0 0 0 0 0 0 0 0 0
0 0 0 0 0 0 0 0 0 0 0 0 0 0 0 0 0 0 0 0 0 0 0 0 0 0 0 0 0 0 0 0 0 0 0 0 0 0 0 0 0 0 0 0 0 0 0 0 0
0 0 0 0 0 0 0 0 0 0 0 0 0 0 0 0 0 0 0 0 0 0 0 0 0 0 0 0 0 0 0 0 0 0 0 0 0 0 0 0 0 0 0 0 0 0 0 0 0
0 0 0 0 0 0 0 0 0 0 0 0 0 0 0 0 0 0 0 0 0 0 0 0 0 0 0 0 0 0 0 0 0 0 0 0 0 0 0 0 0 0 0 0 0 0 0 0 0
0 0 0 0 0 0 0 0 0 0 0 0 0 0 0 0 0 0 0 0 0 0 0 0 0 0 0 0 0 0 0 0 0 0 0 0 0 0 0 0 0 0 0 0 0 0 0 0 0
0 0 0 0 0 0 0 0 0 0 0 0 0 0 0 0 0 0 0 0 0 0 0 0 0 0 0 0 0 0 0 0 0 0 0 0 0 0 0 0 0 0 0 0 0 0 0 0 0
0 0 0 0 0 0 0 0 0 0 0 0 0 0 0 0 0 0 0 0 0 0 0 0 0 0 0 0 1 1 1 1 1 1 1 1 0 0 1 1 0 0 0 0 0 0 0 0 0
0 0 0 0 0 0 0 0 0 0 0 0 0 0 0 0 0 0 0 0 0 0 0 0 0 0 0 1 2 4 4 5 4 3 2 1 0 1 3 3 1 1 0 0 0 0 0 0 0
0 0 0 0 0 0 0 0 0 0 0 0 0 0 0 0 0 0 0 0 0 0 0 0 0 0 0 1 3 5 7 8 7 5 5 4 2 3 5 6 8 6 2 1 1 0 0 0 0
0 0 0 0 0 0 0 0 0 0 0 0 0 0 0 1 3 3 2 1 1 1 1 0 1 1 2 2 3 4 7 11 9 7 9 9 5 4 6 12 17 13 6 4 3 2 0 0 0
0 0 0 0 0 0 0 0 0 0 0 0 0 1 3 5 7 7 5 4 3 2 2 2 3 4 5 6 6 6 10 15 15 13 15 16 14 11 12 17 22 21 15 13 12 8 3 0 0
0 0 0 0 0 0 0 0 0 0 0 0 2 5 9 11 10 9 8 5 4 3 3 4 7 9 11 12 12 12 15 18 18 19 21 22 23 21 21 26 28 27 27 25 22 18 11 6 5
0 0 0 0 0 0 0 0 0 0 0 2 6 11 15 16 15 13 10 7 5 4 4 7 12 16 21 25 22 18 19 19 20 21 24 27 29 28 29 36 38 35 36 39 35 28 25 22 19
0 0 0 0 0 0 0 0 1 2 3 6 13 19 23 25 25 24 19 12 7 6 8 13 19 27 35 40 34 24 22 24 24 24 25 29 32 31 34 39 43 44 47 54 51 43 42 42 38
0 0 0 0 0 0 0 2 5 8 10 14 22 31 40 42 39 34 26 17 11 12 18 25 28 35 46 51 44 31 25 26 29 30 32 34 33 34 38 42 46 52 56 64 66 60 59 60 57
0 0 0 0 0 0 0 4 13 19 22 27 35 44 55 59 51 39 28 20 17 22 30 32 31 35 45 51 46 37 29 28 32 35 35 35 33 35 41 48 52 57 61 67 72 73 74 76 75
0 0 0 0 0 0 1 8 21 31 35 41 47 51 58 61 53 42 32 27 28 34 36 33 29 33 41 45 43 37 33 31 31 32 31 31 30 33 41 46 49 56 62 67 73 80 84 86 86
0 0 0 1 1 2 4 12 27 39 44 49 53 53 54 55 51 46 42 39 39 40 39 34 33 36 40 40 37 34 32 30 27 26 24 23 24 29 35 36 39 49 58 63 68 75 81 84 84
0 0 0 1 2 3 5 12 24 36 45 52 55 54 53 53 52 52 54 52 47 45 42 38 37 39 38 35 32 31 29 26 22 20 17 15 18 22 26 28 32 41 48 52 57 65 71 75 78
0 0 0 1 2 3 3 7 15 26 37 47 52 53 52 52 55 59 61 57 51 48 44 39 37 36 35 32 28 27 26 23 19 17 15 11 11 15 18 23 27 33 38 40 47 57 64 69 72
0 0 0 0 1 1 1 2 7 15 26 37 46 51 51 52 54 56 55 53 51 49 43 37 34 34 34 32 28 25 23 20 16 15 14 11 9 10 14 18 22 26 28 31 38 49 59 63 63
0 0 0 0 0 0 0 1 4 8 15 27 40 47 49 48 47 45 43 44 44 43 39 35 35 36 35 34 32 29 23 17 14 13 13 11 9 8 10 12 15 17 18 21 27 37 47 52 51
0 0 0 0 0 0 0 0 2 4 8 18 30 37 37 37 34 33 33 34 35 35 33 35 40 44 42 41 42 39 29 19 16 16 15 12 8 5 4 5 6 8 10 12 16 24 31 37 40
0 0 0 0 0 0 0 0 1 3 5 10 18 22 22 21 21 20 22 24 24 25 27 35 48 57 57 55 56 53 42 32 27 23 19 13 8 3 2 1 1 3 4 5 7 12 16 22 27
0 0 0 0 0 0 0 0 1 1 2 5 9 11 11 11 10 10 11 12 13 15 20 30 48 63 67 66 64 61 56 48 40 33 26 17 8 4 3 2 1 1 1 1 2 3 6 10 14
0 0 0 0 0 0 0 0 0 0 1 2 3 4 5 5 4 5 7 7 8 12 17 25 41 58 65 66 66 64 62 57 50 44 35 25 15 9 7 5 2 0 0 0 0 1 1 3 6
0 0 0 0 0 0 0 0 0 0 0 0 0 1 1 1 2 3 5 7 10 14 17 24 35 47 54 59 60 60 59 59 59 55 47 39 31 22 16 11 5 1 0 0 0 0 0 1 2
0 0 0 0 0 0 0 1 1 1 0 0 0 0 0 0 1 2 5 8 12 15 17 21 27 33 39 44 47 49 51 56 61 60 55 49 44 36 26 18 10 4 1 1 0 0 0 0 1
0 0 0 0 0 0 0 1 1 1 0 0 0 0 0 0 0 2 5 7 9 11 13 15 17 20 24 28 32 36 41 47 53 58 57 54 49 41 31 21 14 7 3 2 1 0 0 0 0
0 0 0 0 0 0 0 0 1 0 0 0 0 0 0 0 0 1 2 4 6 7 9 10 11 13 16 19 23 29 34 39 45 52 57 55 49 41 30 22 14 7 4 2 1 0 0 0 0
Wind_Speed
9 8 6 6 8 3 11 9 6 5 5 4 2 1 3 4 5 6 6 14 16 17 19 19 17 16 15 14 14 14 13 13 12 12 11 10 9 9 8 7 6 6 5 5 5 5 5 6 6
6 5 6 7 4 7 10 8 8 8 6 4 3 1 1 5 6 7 10 14 16 17 17 17 18 16 15 14 14 13 13 12 12 11 10 10 9 8 7 7 6 5 4 4 4 4 4 4 5
5 7 7 5 3 8 9 7 6 6 4 1 3 3 4 6 5 6 10 16 16 16 15 16 18 16 15 14 13 13 12 12 11 10 10 9 8 7 7 6 5 4 4 4 4 4 4 4 4
5 7 7 4 6 8 6 5 3 3 3 3 2 5 6 6 4 8 14 16 17 16 15 17 17 16 15 14 13 12 12 11 10 10 9 8 8 7 6 6 5 4 4 4 4 4 4 4 4
6 7 6 2 5 6 5 4 1 2 3 4 2 6 8 6 7 12 15 16 16 15 14 17 17 16 15 14 13 12 11 11 10 10 9 8 7 7 6 6 6 6 5 5 5 5 5 6 6
6 6 5 1 5 4 5 3 0 3 4 4 3 6 8 7 9 13 14 14 14 14 13 16 16 15 14 14 13 12 12 11 10 10 9 9 8 8 7 7 7 7 7 7 7 7 7 7 8
7 6 3 1 3 4 5 3 1 2 2 4 3 6 9 9 10 12 13 12 12 13 12 13 15 14 14 13 12 12 11 11 10 10 10 9 9 9 9 9 9 9 9 9 9 9 9 9 10
6 7 6 4 2 3 4 1 1 0 4 4 1 3 8 13 13 13 12 11 11 11 11 11 12 12 12 13 13 12 11 11 11 10 10 10 10 11 11 11 12 11 11 11 11 11 11 11 11
6 8 7 3 2 3 3 0 2 2 5 4 2 4 9 17 16 14 12 11 11 10 10 10 11 10 10 10 11 13 12 12 11 11 13 11 11 11 11 13 9 11 12 12 12 12 12 12 13
7 10 4 2 3 3 2 2 1 5 6 6 6 7 12 17 16 15 14 14 13 13 12 10 10 10 9 7 7 8 9 10 10 9 9 9 8 7 8 3 7 11 13 13 14 14 13 13 11
7 8 3 2 3 5 4 2 3 6 5 5 6 12 15 16 15 14 13 12 12 12 12 11 9 8 8 6 6 5 5 5 8 10 9 8 7 7 8 6 8 11 13 12 11 13 11 10 8
7 6 5 5 4 6 6 5 4 6 2 3 2 11 17 17 16 15 13 12 11 11 12 11 10 9 8 7 5 5 5 5 6 7 9 8 6 7 7 6 7 6 6 7 8 7 10 10 10
8 7 5 7 8 8 9 8 6 4 3 1 5 12 15 15 14 12 12 11 10 11 11 10 10 10 9 7 6 6 6 6 7 6 7 8 7 8 7 6 7 8 8 8 8 9 10 10 11
5 8 9 9 8 6 8 7 7 2 1 3 7 11 12 12 12 11 11 10 10 11 11 10 10 10 9 7 7 7 7 6 7 7 8 8 8 8 8 9 8 9 8 8 8 10 9 9 9
6 10 10 7 6 4 7 10 5 2 2 5 7 8 9 10 10 10 10 10 10 9 9 9 9 10 10 9 9 7 7 7 7 7 8 9 10 9 9 9 9 9 8 9 8 10 9 9 10
8 11 12 5 2 3 8 12 2 2 3 5 6 7 8 8 8 8 8 8 8 8 8 8 8 9 9 8 7 7 7 7 7 7 7 9 10 10 9 9 10 9 8 8 8 9 9 9 8
10 10 9 4 1 2 7 6 4 2 2 4 5 7 7 8 7 6 7 7 7 7 7 8 8 7 7 7 6 7 6 6 7 7 7 8 9 10 9 9 9 10 8 9 9 8 8 9 9
4 5 5 3 3 2 3 1 2 2 0 3 4 5 6 6 6 5 5 5 6 7 7 6 7 6 5 5 4 4 5 5 6 6 6 8 8 9 9 9 10 10 9 9 9 10 10 9 9
2 4 3 1 2 3 1 0 2 2 1 2 3 4 5 4 5 5 5 5 6 7 7 6 6 6 5 3 3 3 3 4 4 4 5 6 7 7 8 8 8 8 8 9 11 10 11 10 8
4 5 3 3 1 3 2 2 1 2 1 1 1 2 3 4 5 5 5 5 6 6 7 7 7 6 6 4 3 2 3 4 3 4 4 5 6 7 7 8 8 8 7 10 10 10 9 9 7
3 3 2 3 1 5 6 7 6 4 2 1 1 1 2 3 4 4 4 4 4 4 5 4 5 5 5 4 4 3 3 4 3 3 3 4 6 7 7 8 8 8 9 8 9 9 11 10 9
1 2 4 6 8 5 4 9 5 3 2 2 2 2 2 2 2 2 2 2 2 2 2 3 4 4 4 5 5 5 4 4 4 4 3 5 5 6 6 7 7 8 8 8 10 9 9 10 9
4 2 5 8 10 10 7 10 2 4 1 4 4 3 2 2 2 2 2 2 2 1 1 2 3 4 4 5 5 6 6 4 4 4 4 5 5 5 6 6 7 7 8 9 10 10 10 9 10
1 5 7 9 9 9 2 7 2 5 5 5 5 5 4 4 4 4 5 4 4 3 3 3 4 4 5 6 7 7 7 6 6 6 5 5 4 4 5 6 6 8 8 8 9 9 11 10 11
6 9 7 6 5 2 2 7 4 8 7 7 7 7 7 7 6 7 7 7 6 6 5 5 5 5 6 7 8 8 8 8 8 8 6 6 6 5 5 6 7 7 7 8 9 9 10 11 12
7 9 8 9 8 5 4 5 7 8 8 8 8 9 9 10 10 9 9 9 8 8 7 6 6 6 6 6 7 8 8 8 7 7 8 7 6 6 6 7 7 8 9 9 8 9 10 9 11
8 7 7 10 12 11 6 3 8 7 8 8 9 10 11 11 11 12 12 12 11 11 10 9 8 7 7 7 7 7 8 9 9 9 9 8 7 6 7 7 8 8 9 9 9 9 10 10 11
5 6 5 7 8 9 6 6 3 6 5 7 8 9 10 10 11 11 11 11 11 11 10 10 10 9 9 8 8 7 8 8 9 10 10 9 9 8 8 8 8 8 8 9 9 10 9 10 10
3 3 5 7 7 10 11 3 8 6 5 5 7 8 9 10 11 11 11 11 11 11 11 10 10 10 10 10 9 9 9 9 9 9 10 10 10 9 9 8 8 8 8 8 8 9 9 10 9
4 5 6 7 8 8 12 2 9 7 5 5 6 7 8 9 10 10 11 11 11 11 11 11 11 11 11 11 10 10 10 10 10 10 10 10 10 10 10 9 9 8 8 8 8 9 9 9 9
Wind_Direction
184 194 218 235 236 122 70 66 57 72 75 66 91 330 351 6 352 46 106 150 150 149 147 156 163 163 160 156 153 150 149 148 147 146 144 144 142 141 139 138 136 133 130 127 125 123 122 121 122
197 200 230 241 264 80 71 58 62 54 68 96 103 21 30 62 44 90 134 147 152 149 151 160 161 165 162 159 157 156 154 153 152 151 151 150 150 149 147 145 145 146 145 145 147 146 144 141 142
207 228 261 257 40 53 63 56 65 82 73 42 67 40 28 49 80 114 132 150 152 150 154 151 162 167 165 163 162 161 160 159 158 158 159 159 159 160 159 159 162 167 170 173 176 177 174 173 174
223 229 239 257 78 60 35 46 68 105 91 60 69 88 81 53 75 117 139 154 153 154 157 149 166 168 169 168 168 168 167 167 167 168 169 171 173 177 179 180 185 194 201 205 207 209 207 205 207
245 261 250 153 77 65 52 43 76 57 54 69 64 87 89 80 94 128 148 156 158 158 155 151 167 170 172 173 175 175 176 176 178 180 182 187 192 198 203 206 210 216 224 229 228 228 229 229 228
254 256 264 117 93 76 59 51 65 65 84 109 105 101 95 107 128 144 152 161 161 158 159 148 165 173 176 179 182 184 185 187 189 192 196 201 207 214 222 227 230 231 234 238 241 241 239 237 237
283 288 285 266 125 102 49 14 32 68 85 82 74 98 118 136 138 147 151 166 162 162 160 156 168 176 181 186 190 192 195 198 201 205 209 213 219 225 231 236 239 242 241 241 244 245 245 243 241
290 276 236 210 195 97 54 25 35 240 98 102 162 97 136 148 149 152 156 164 164 167 169 169 173 177 184 187 193 200 204 208 213 218 222 226 229 230 231 236 230 239 247 248 248 249 248 248 246
264 258 240 207 212 95 61 251 130 112 131 143 107 44 107 139 151 155 160 166 171 177 180 184 177 183 193 197 184 196 207 214 220 221 223 232 239 235 221 228 221 234 246 252 253 252 252 253 243
247 256 252 39 333 339 350 281 194 188 176 167 142 114 130 148 160 167 173 176 178 184 187 194 189 189 198 206 186 210 212 206 219 232 227 228 238 253 260 222 222 243 249 253 250 252 253 248 247
250 266 307 271 319 312 296 277 234 234 208 187 170 155 158 165 171 178 183 186 183 188 190 193 195 201 208 205 210 215 224 219 223 230 237 246 256 247 246 244 218 226 234 241 235 233 240 241 244
256 255 272 284 311 296 296 286 256 252 316 31 166 159 167 175 181 184 185 189 184 192 196 195 193 198 214 225 222 226 230 226 236 226 234 242 244 256 260 258 264 256 243 243 254 249 248 252 256
244 258 265 275 277 280 277 264 268 272 331 40 147 162 176 182 183 185 185 189 189 195 200 200 199 201 204 215 237 237 243 246 244 253 243 251 256 257 262 263 261 265 264 254 247 255 258 257 256
288 284 271 267 268 256 256 253 242 263 310 171 166 172 181 183 183 182 187 192 196 200 201 200 203 204 206 212 224 241 250 244 258 255 254 254 258 263 266 264 260 261 263 267 267 264 261 260 261
274 268 255 241 252 242 254 239 236 318 256 197 183 173 174 178 183 189 191 198 201 200 199 199 205 207 208 219 228 237 247 251 253 257 258 257 259 260 262 267 265 263 265 266 262 266 264 258 257
241 245 244 202 263 219 247 250 98 355 229 200 181 167 165 169 181 186 190 199 202 201 195 197 204 203 210 221 235 248 256 264 265 265 264 261 263 264 266 268 268 268 266 262 258 256 258 257 259
221 237 243 201 70 275 254 270 51 353 215 183 175 169 166 162 170 177 189 193 191 192 190 193 202 205 211 220 232 249 259 265 270 272 274 277 277 275 272 273 275 275 270 266 263 258 256 258 256
223 238 231 245 40 300 258 267 60 30 190 154 165 167 168 167 162 166 176 178 174 176 179 186 189 200 206 213 225 249 259 264 267 275 281 286 284 284 284 277 278 279 274 270 265 265 260 258 259
300 265 250 49 23 303 275 168 76 65 110 140 158 172 167 160 147 152 152 157 162 163 168 178 185 182 193 203 225 243 259 272 280 285 299 297 296 296 289 287 290 284 278 276 274 270 268 263 258
233 243 225 155 81 294 270 232 135 70 49 38 105 181 170 167 158 151 149 151 152 157 168 175 184 186 198 200 227 258 289 286 295 301 305 299 302 302 293 294 291 288 284 276 275 272 269 266 252
225 280 318 315 265 227 258 225 178 147 128 111 144 172 170 164 157 149 150 149 149 150 164 175 185 192 205 211 222 229 238 251 257 281 284 301 304 299 300 298 295 296 286 283 284 279 273 271 266
234 17 312 295 280 273 274 275 172 158 150 106 86 110 126 126 128 128 141 135 143 151 166 185 197 206 210 218 231 245 264 282 300 288 296 298 291 295 298 297 298 295 292 290 282 281 281 273 269
4 347 289 288 284 275 246 267 191 143 145 60 53 57 80 72 58 48 33 21 10 335 249 226 226 230 232 240 239 245 255 268 276 282 282 284 286 282 287 294 297 296 292 294 293 292 283 278 272
223 248 246 250 261 256 267 283 226 75 17 14 38 48 48 44 40 34 26 19 7 348 320 287 264 256 250 247 249 252 263 268 275 276 282 278 281 277 281 290 293 290 293 294 291 288 280 276 276
251 285 280 263 248 260 109 270 65 58 34 22 29 37 40 38 33 28 21 13 5 356 343 323 302 283 270 259 254 252 255 258 258 265 268 275 284 283 288 292 290 290 291 289 289 284 283 279 274
304 296 293 302 302 301 225 253 92 78 63 57 54 51 43 38 34 28 22 15 9 6 358 349 336 317 303 285 275 267 261 259 260 255 269 271 277 287 295 283 282 287 288 288 288 284 279 276 273
292 286 321 290 280 278 270 141 132 110 78 65 60 54 45 39 36 31 27 22 17 13 10 3 356 346 337 320 304 286 277 272 271 267 256 262 263 271 270 273 278 283 286 290 291 285 286 284 278
310 309 271 277 293 291 277 248 171 119 75 64 55 48 42 37 34 30 27 22 17 13 10 6 2 355 347 337 324 311 298 287 277 269 267 265 264 262 263 266 273 278 283 287 289 291 292 289 284
271 253 294 288 289 294 295 337 65 76 62 52 51 41 32 25 24 20 18 15 11 8 6 3 359 356 350 342 331 321 313 304 292 278 270 264 259 256 255 259 266 273 279 285 289 293 297 293 292
296 315 300 297 298 284 285 357 83 81 71 43 32 23 15 9 8 7 5 1 358 356 353 352 350 348 345 340 331 324 319 313 304 295 285 273 261 254 251 254 260 267 274 282 290 296 303 303 302